Alexandria Esle, LA

4:59 PM CDT on May 26, 2017 (GMT -0500)
Alexandria Esler Regional

Weather History for KESF - September, 2012

Change the Weather History Date:

Wednesday, September 5, 2012

  Actual Average Record
Temperature  
Mean Temperature 86 °F -  
Max Temperature 96 °F 87 °F 100 °F (2015)
Min Temperature 77 °F 68 °F 54 °F (1974)
Cooling Degree Days 22    
Growing Degree Days 36 (Base 50)    
Moisture  
Dew Point 74 °F    
Average Humidity 77    
Maximum Humidity 94    
Minimum Humidity 47    
Precipitation  
Precipitation 0.00 in - - ()
Sea Level Pressure  
Sea Level Pressure 29.88 in    
Wind  
Wind Speed 5 mph (West)    
Max Wind Speed 12 mph    
Max Gust Speed -    
Visibility 10 miles    
Events      
Averages and records for this station are not official NWS values.
T = Trace of Precipitation, MM = Missing Value Source: NWS Daily Summary

Daily Weather History Graph

Daily Weather History Graph

Search for Another Location

Airport or City:

Trip Planner

Search our weather history database for the weather conditions in past years. The results will help you decide how hot, cold, wet, or windy it might be!

Date:

Astronomy

Sep. 05, 2012 Rise Set
Actual Time 6:47 AM CDT 7:27 PM CDT
Civil Twilight 6:23 AM CDT 7:51 PM CDT
Nautical Twilight 5:54 AM CDT 8:20 PM CDT
Astronomical Twilight 5:24 AM CDT 8:49 PM CDT
Moon 10:21 PM CDT (9/5) 11:28 AM CDT (9/5)
Length of Visible Light 13h 28m
Length of Day
12h 39m
Waning Gibbous, 76% of the Moon is Illuminated
Sep 5
Waning Gibbous
Sep 8
Last Quarter
Sep 15
New
Sep 22
First Quarter
Sep 29
Full

Hourly Weather History & Observations

Time (CDT) Temp. Heat Index Dew Point Humidity Pressure Visibility Wind Dir Wind Speed Gust Speed Precip Events Conditions
12:53 AM 80.1 °F 85.1 °F 75.0 °F 85% 29.88 in 10.0 mi West 6.9 mph - N/A   Clear
1:53 AM 79.0 °F - 75.0 °F 88% 29.88 in 10.0 mi WSW 5.8 mph - N/A   Clear
2:53 AM 77.0 °F - 73.9 °F 90% 29.87 in 10.0 mi WSW 5.8 mph - N/A   Clear
3:53 AM 77.0 °F - 73.9 °F 90% 29.87 in 10.0 mi West 4.6 mph - N/A   Clear
4:53 AM 77.0 °F - 73.9 °F 90% 29.88 in 10.0 mi West 5.8 mph - N/A   Clear
5:53 AM 77.0 °F - 73.9 °F 90% 29.88 in 10.0 mi West 4.6 mph - N/A   Clear
6:04 AM 77.0 °F - 73.4 °F 89% 29.89 in 10.0 mi West 4.6 mph - N/A   Scattered Clouds
6:53 AM 77.0 °F - 73.9 °F 90% 29.88 in 8.0 mi West 6.9 mph - N/A   Clear
7:21 AM 77.0 °F - 73.4 °F 89% 29.90 in 9.0 mi West 6.9 mph - N/A   Partly Cloudy
7:37 AM 78.8 °F - 75.2 °F 89% 29.91 in 10.0 mi West 6.9 mph - N/A   Mostly Cloudy
7:53 AM 78.1 °F - 75.0 °F 90% 29.91 in 10.0 mi West 8.1 mph - N/A   Overcast
8:41 AM 80.6 °F 86.2 °F 75.2 °F 84% 29.92 in 10.0 mi West 6.9 mph - N/A   Scattered Clouds
8:53 AM 81.0 °F 86.7 °F 75.0 °F 82% 29.91 in 10.0 mi West 9.2 mph - N/A   Partly Cloudy
9:53 AM 84.9 °F 91.4 °F 73.0 °F 67% 29.91 in 10.0 mi West 11.5 mph - N/A   Clear
10:53 AM 88.0 °F 96.5 °F 73.9 °F 63% 29.91 in 10.0 mi WNW 5.8 mph - N/A   Clear
11:53 AM 91.0 °F 100.4 °F 73.9 °F 57% 29.91 in 10.0 mi Calm Calm - N/A   Clear
12:53 PM 91.9 °F 101.3 °F 73.9 °F 55% 29.89 in 10.0 mi SW 4.6 mph - N/A   Clear
1:53 PM 93.0 °F 104.6 °F 75.0 °F 56% 29.87 in 10.0 mi WSW 6.9 mph - N/A   Clear
2:53 PM 95.0 °F 105.2 °F 73.9 °F 50% 29.86 in 10.0 mi WSW 5.8 mph - N/A   Mostly Cloudy
3:53 PM 96.1 °F 107.1 °F 73.9 °F 49% 29.84 in 10.0 mi SSW 4.6 mph - N/A   Clear
4:53 PM 95.0 °F 103.2 °F 71.6 °F 47% 29.84 in 10.0 mi West 3.5 mph - N/A   Clear
5:53 PM 93.9 °F 102.1 °F 72.0 °F 49% 29.83 in 10.0 mi SW 3.5 mph - N/A   Clear
6:53 PM 91.0 °F 104.2 °F 77.0 °F 63% 29.83 in 10.0 mi Calm Calm - N/A   Clear
7:53 PM 82.9 °F 91.8 °F 77.0 °F 82% 29.84 in 10.0 mi Calm Calm - N/A   Clear
8:53 PM 81.0 °F 87.9 °F 77.0 °F 88% 29.86 in 10.0 mi Calm Calm - N/A   Clear
9:53 PM 80.1 °F 85.4 °F 75.9 °F 87% 29.86 in 10.0 mi Calm Calm - N/A   Clear
10:53 PM 78.1 °F - 75.0 °F 90% 29.86 in 9.0 mi Calm Calm - N/A   Clear
11:53 PM 77.0 °F - 75.0 °F 94% 29.86 in 7.0 mi Calm Calm - N/A   Clear